Date String (YYYY-MM-DD hh:mm:ss) UTC,Instrument flags,Ambient pressure (hPa),Sample flow (lpm),Bypass flow (lpm),Sample temperature (°C),Ambient temperature (°C),ASC tube jacket temperature (°C),LED temperature (°C),Box temperature (°C),Sample RH (%),Span deviation,Mass concentration (μg/m³),Mass concentration (μg/m³),Mass concentration (μg/m³)
DateTimeUTC,F1_M11,P_M11,Q1_M11,Q2_M11,T1_M11,T2_M11,T3_M11,T4_M11,T5_M11,U1_M11,ZSPAN_M11,X2_M11,X0_M11,X1_M11
2023-03-03 16:00:00,,0815.3,5.00,0.00,22.4,20.7,00.0,31.2,24.0,14.9,-001.5,0012.31,0018.88,0011.74
2023-03-03 16:01:00,,0815.3,5.00,0.00,22.3,20.6,00.0,31.2,24.0,14.8,-001.5,0012.43,0020.14,0011.85
2023-03-03 16:02:00,,0815.3,5.00,0.00,22.3,20.6,00.0,31.2,24.0,14.9,-001.6,0012.55,0020.25,0011.95
2023-03-03 16:03:00,,0815.3,5.01,0.00,22.3,20.6,00.0,31.2,23.9,15.0,-001.6,0012.62,0020.04,0012.01
2023-03-03 16:04:00,,0815.2,5.00,0.00,22.3,20.6,00.0,31.1,23.9,15.0,-001.5,0012.70,0020.52,0012.06
2023-03-03 16:05:00,,0815.2,4.99,0.00,22.3,20.6,00.0,31.1,23.9,15.0,-001.6,0012.71,0020.61,0012.07
2023-03-03 16:06:00,,0815.3,5.00,0.00,22.3,20.5,00.0,31.1,23.9,15.0,-001.8,0012.66,0020.34,0012.04
2023-03-03 16:07:00,,0815.4,4.99,0.00,22.2,20.4,00.0,31.1,23.8,14.8,-001.8,0012.63,0020.23,0012.03
2023-03-03 16:08:00,,0815.5,5.02,0.00,22.2,20.4,00.0,31.1,23.8,14.9,-001.9,0012.68,0021.61,0012.05
2023-03-03 16:09:00,,0815.2,4.99,0.00,22.2,20.4,00.0,31.1,23.8,14.9,-002.0,0012.71,0021.98,0012.06
2023-03-03 16:10:00,,0815.2,5.01,0.00,22.2,20.4,00.0,31.1,23.7,14.8,-001.9,0012.70,0022.52,0012.05
2023-03-03 16:11:00,,0815.1,5.00,0.00,22.2,20.3,00.0,31.0,23.8,14.7,-001.5,0012.65,0022.89,0012.01
2023-03-03 16:12:00,,0815.1,5.00,0.00,22.1,20.5,00.0,31.0,23.8,14.7,-001.2,0012.59,0022.01,0011.97
2023-03-03 16:13:00,,0815.5,4.99,0.00,22.2,21.6,00.0,31.0,24.0,14.8,-001.1,0012.54,0022.60,0011.94
2023-03-03 16:14:00,,0815.4,4.98,0.00,22.3,22.8,00.0,31.0,24.3,14.9,-001.2,0012.49,0022.71,0011.92
2023-03-03 16:15:00,,0815.6,5.00,0.00,22.5,23.3,00.0,31.1,24.5,14.9,-001.3,0012.50,0022.55,0011.93
2023-03-03 16:16:00,,0815.5,4.99,0.00,22.5,22.8,00.0,31.1,24.4,15.0,-001.2,0012.50,0021.85,0011.94
2023-03-03 16:17:00,,0815.2,5.00,0.00,22.5,22.3,00.0,31.1,24.4,15.0,-001.1,0012.52,0022.24,0011.97
2023-03-03 16:18:00,,0815.2,5.00,0.00,22.5,21.9,00.0,31.1,24.3,15.0,-000.9,0012.55,0022.28,0012.01
2023-03-03 16:19:00,,0815.2,4.99,0.00,22.5,21.7,00.0,31.2,24.3,14.8,-000.9,0012.56,0021.33,0012.01
2023-03-03 16:20:00,,0815.1,5.00,0.00,22.5,21.5,00.0,31.2,24.2,14.6,-000.7,0012.56,0020.76,0012.01
2023-03-03 16:21:00,,0815.2,5.00,0.00,22.5,21.4,00.0,31.2,24.2,14.6,-000.5,0012.54,0020.17,0012.01
2023-03-03 16:22:00,,0815.2,5.02,0.00,22.5,21.3,00.0,31.2,24.2,14.4,-000.6,0012.53,0019.46,0012.03
2023-03-03 16:23:00,,0815.2,5.01,0.00,22.5,21.2,00.0,31.2,24.1,14.3,-001.0,0012.56,0019.16,0012.04
2023-03-03 16:24:00,,0815.2,5.00,0.00,22.5,21.1,00.0,31.2,24.1,14.6,-001.1,0012.57,0018.74,0012.04
2023-03-03 16:25:00,,0815.2,5.00,0.00,22.5,21.1,00.0,31.2,24.1,14.8,-000.8,0012.57,0018.56,0012.03
2023-03-03 16:26:00,,0815.1,4.99,0.00,22.5,21.0,00.0,31.2,24.2,14.4,-000.6,0012.50,0018.31,0011.97
2023-03-03 16:27:00,,0815.1,5.02,0.00,22.4,21.0,00.0,31.2,24.1,14.3,-000.6,0012.42,0018.32,0011.87
2023-03-03 16:28:00,,0815.1,4.98,0.00,22.4,20.9,00.0,31.2,24.0,14.5,-000.5,0012.32,0017.93,0011.80
2023-03-03 16:29:00,,0815.1,5.01,0.00,22.4,20.8,00.0,31.2,24.0,14.5,-000.4,0012.22,0017.47,0011.71
2023-03-03 16:30:00,,0815.1,4.98,0.00,22.4,20.7,00.0,31.2,24.0,14.7,-000.5,0012.18,0017.46,0011.65
2023-03-03 16:31:00,,0815.1,5.00,0.00,22.4,20.7,00.0,31.2,24.0,14.9,-000.5,0012.11,0017.29,0011.60
2023-03-03 16:32:00,,0815.1,5.00,0.00,22.3,20.7,00.0,31.2,23.9,14.7,-000.8,0012.07,0017.70,0011.55
2023-03-03 16:33:00,,0815.1,5.00,0.00,22.3,20.7,00.0,31.1,24.0,14.7,-000.6,0012.02,0018.14,0011.47
2023-03-03 16:34:00,,0815.1,5.00,0.00,22.3,20.8,00.0,31.1,24.0,14.4,-000.6,0011.99,0018.14,0011.42
2023-03-03 16:35:00,,0815.0,4.98,0.00,22.3,20.9,00.0,31.1,24.1,14.3,-000.5,0011.96,0017.60,0011.38
2023-03-03 16:36:00,,0815.0,4.98,0.00,22.3,20.9,00.0,31.1,24.0,14.3,-000.6,0011.93,0017.77,0011.35
2023-03-03 16:37:00,,0815.0,4.98,0.00,22.3,20.8,00.0,31.1,24.0,14.5,-000.7,0011.93,0017.87,0011.35
2023-03-03 16:38:00,,0815.0,5.00,0.00,22.3,20.8,00.0,31.1,24.0,14.9,-000.9,0012.00,0018.77,0011.40
2023-03-03 16:39:00,,0815.0,4.99,0.00,22.3,20.8,00.0,31.1,24.0,15.1,-001.0,0012.08,0019.81,0011.48
2023-03-03 16:40:00,,0815.0,5.00,0.00,22.3,20.8,00.0,31.1,24.0,15.0,-001.1,0012.19,0019.98,0011.57
2023-03-03 16:41:00,,0815.0,5.00,0.00,22.3,20.9,00.0,31.1,24.0,15.1,-001.3,0012.29,0020.42,0011.65
2023-03-03 16:42:00,,0815.0,5.00,0.00,22.3,21.0,00.0,31.1,24.0,15.1,-001.4,0012.35,0020.64,0011.71
2023-03-03 16:43:00,,0815.1,4.99,0.00,22.3,21.0,00.0,31.1,24.1,15.0,-001.4,0012.43,0022.16,0011.78
2023-03-03 16:44:00,,0815.1,4.99,0.00,22.3,21.1,00.0,31.1,24.1,15.0,-001.2,0012.50,0022.18,0011.85
2023-03-03 16:45:00,,0815.2,5.01,0.00,22.3,21.1,00.0,31.1,24.1,15.1,-001.4,0012.58,0021.52,0011.94
2023-03-03 16:46:00,,0815.2,5.03,0.00,22.3,21.1,00.0,31.1,24.1,14.8,-001.5,0012.56,0021.41,0011.98
2023-03-03 16:47:00,,0815.2,5.00,0.00,22.3,21.1,00.0,31.1,24.1,14.7,-001.5,0012.57,0021.52,0011.99
2023-03-03 16:48:00,,0815.2,5.00,0.00,22.3,21.2,00.0,31.1,24.1,14.7,-001.7,0012.60,0021.59,0012.04
2023-03-03 16:49:00,,0815.2,4.98,0.00,22.3,21.2,00.0,31.1,24.2,14.8,-001.6,0012.61,0021.64,0012.04
2023-03-03 16:50:00,,0815.1,5.00,0.00,22.4,21.2,00.0,31.1,24.2,15.2,-001.5,0012.59,0020.76,0012.03
2023-03-03 16:51:00,,0815.1,5.00,0.00,22.4,21.2,00.0,31.1,24.2,15.2,-001.3,0012.58,0020.81,0011.98
2023-03-03 16:52:00,,0815.1,5.00,0.00,22.4,21.2,00.0,31.1,24.2,14.9,-001.2,0012.54,0020.54,0011.94
2023-03-03 16:53:00,,0815.1,4.99,0.00,22.4,21.3,00.0,31.1,24.2,14.7,-001.1,0012.47,0020.52,0011.87
2023-03-03 16:54:00,,0815.0,5.01,0.00,22.4,21.3,00.0,31.1,24.2,14.1,-001.1,0012.30,0019.09,0011.71
2023-03-03 16:55:00,,0815.0,5.00,0.00,22.4,21.3,00.0,31.1,24.3,14.0,-001.1,0012.14,0018.76,0011.54
2023-03-03 16:56:00,,0815.0,4.99,0.00,22.4,21.3,00.0,31.1,24.3,14.2,-001.2,0012.09,0018.66,0011.49
2023-03-03 16:57:00,,0815.2,4.99,0.00,22.4,21.3,00.0,31.1,24.3,14.5,-001.3,0012.12,0019.00,0011.51
2023-03-03 16:58:00,,0815.2,5.01,0.00,22.4,21.3,00.0,31.1,24.3,14.0,-001.5,0012.06,0019.05,0011.47
2023-03-03 16:59:00,,0815.1,5.01,0.00,22.5,21.3,00.0,31.1,24.3,13.3,-001.4,0011.90,0019.02,0011.31
